When you browse on this site, cookies collect data to enhance your experience and personalize the content and advertising you see.
Visit our Privacy Policy to learn more. By continuing to use the site, you agree to this use of cookies and data.

Hourly Weather Pabna

Today, 18 September, Friday

Time Temperature Precipitation Wind Pressure Humidity
00:00 +29°C° 0 mm 2 mps 751 mmHg 87%
01:00 +29°C° 2.1 mm 1 mps 750 mmHg 89%
02:00 +29°C° 2.1 mm 1 mps 750 mmHg 90%
03:00 +29°C° 2.1 mm 1 mps 750 mmHg 92%
04:00 +29°C° 0.5 mm 1 mps 750 mmHg 92%
05:00 +29°C° 0.5 mm 1 mps 750 mmHg 92%
06:00 +29°C° 0 mm 1 mps 750 mmHg 92%
07:00 +29°C° 0.1 mm 1 mps 750 mmHg 88%
08:00 +30°C° 0.1 mm 1 mps 751 mmHg 85%
09:00 +31°C° 0.1 mm 1 mps 751 mmHg 82%
10:00 +32°C° 0.1 mm 1 mps 751 mmHg 76%
11:00 +33°C° 0.1 mm 1 mps 750 mmHg 70%
12:00 +33°C° 0 mm 1 mps 751 mmHg 67%
13:00 +34°C° 0 mm 1 mps 750 mmHg 64%
14:00 +34°C° 0 mm 1 mps 749 mmHg 62%
15:00 +35°C° 0 mm 1 mps 747 mmHg 59%
16:00 +34°C° 0 mm 1 mps 747 mmHg 63%
17:00 +33°C° 0 mm 1 mps 747 mmHg 68%
18:00 +32°C° 0 mm 1 mps 747 mmHg 73%
19:00 +32°C° 0 mm 1 mps 748 mmHg 73%
20:00 +31°C° 0 mm 1 mps 748 mmHg 73%
21:00 +31°C° 0 mm 1 mps 749 mmHg 73%
22:00 +31°C° 0 mm 1 mps 749 mmHg 74%
23:00 +31°C° 0 mm 1 mps 749 mmHg 75%

Tomorrow, 19 September, Saturday

Time Temperature Precipitation Wind Pressure Humidity
00:00 +30°C° 0 mm 1 mps 749 mmHg 76%
01:00 +30°C° 0 mm 1 mps 749 mmHg 78%
02:00 +30°C° 0 mm 1 mps 748 mmHg 79%
03:00 +30°C° 0 mm 1 mps 748 mmHg 80%
04:00 +29°C° 0.1 mm 1 mps 748 mmHg 81%
05:00 +29°C° 0.1 mm 1 mps 748 mmHg 82%
06:00 +29°C° 0.1 mm 1 mps 748 mmHg 83%
07:00 +30°C° 0 mm 1 mps 749 mmHg 79%
08:00 +32°C° 0 mm 1 mps 749 mmHg 74%
09:00 +34°C° 0 mm 2 mps 750 mmHg 69%
10:00 +35°C° 0 mm 2 mps 749 mmHg 65%
11:00 +35°C° 0 mm 1 mps 749 mmHg 60%
12:00 +36°C° 0 mm 1 mps 748 mmHg 56%
13:00 +36°C° 0 mm 1 mps 747 mmHg 55%
14:00 +37°C° 0 mm 1 mps 746 mmHg 53%
15:00 +38°C° 0 mm 2 mps 746 mmHg 52%
16:00 +37°C° 0 mm 2 mps 746 mmHg 57%
17:00 +36°C° 0 mm 2 mps 745 mmHg 62%
18:00 +35°C° 0 mm 2 mps 745 mmHg 67%
19:00 +34°C° 0 mm 2 mps 746 mmHg 68%
20:00 +34°C° 0 mm 2 mps 747 mmHg 69%
21:00 +32°C° 0 mm 1 mps 747 mmHg 70%
22:00 +32°C° 0 mm 1 mps 747 mmHg 71%
23:00 +32°C° 0 mm 1 mps 747 mmHg 73%

Day after tomorrow, 20 September, Sunday

Time Temperature Precipitation Wind Pressure Humidity
00:00 +32°C° 0 mm 2 mps 747 mmHg 74%
01:00 +31°C° 0 mm 2 mps 747 mmHg 75%
02:00 +31°C° 0 mm 2 mps 747 mmHg 75%
03:00 +31°C° 0 mm 2 mps 746 mmHg 76%
04:00 +31°C° 0 mm 2 mps 747 mmHg 77%
05:00 +30°C° 0 mm 2 mps 747 mmHg 78%
06:00 +30°C° 0 mm 2 mps 747 mmHg 79%
07:00 +32°C° 0 mm 2 mps 747 mmHg 75%
08:00 +34°C° 0 mm 3 mps 747 mmHg 72%
09:00 +35°C° 0 mm 3 mps 748 mmHg 68%
10:00 +36°C° 0 mm 3 mps 747 mmHg 63%
11:00 +38°C° 0 mm 2 mps 747 mmHg 58%
12:00 +39°C° 0 mm 2 mps 746 mmHg 53%
13:00 +39°C° 0 mm 2 mps 746 mmHg 51%
14:00 +40°C° 0 mm 2 mps 745 mmHg 49%
15:00 +40°C° 0 mm 2 mps 744 mmHg 46%
16:00 +39°C° 0 mm 2 mps 744 mmHg 51%
17:00 +37°C° 0 mm 1 mps 744 mmHg 55%
18:00 +36°C° 0 mm 1 mps 744 mmHg 60%
19:00 +35°C° 0.8 mm 2 mps 744 mmHg 65%
20:00 +34°C° 0.8 mm 4 mps 745 mmHg 71%
21:00 +33°C° 0.8 mm 5 mps 746 mmHg 76%
22:00 +32°C° 1.8 mm 4 mps 746 mmHg 80%
23:00 +30°C° 1.8 mm 3 mps 746 mmHg 84%

21 September, Monday

Time Temperature Precipitation Wind Pressure Humidity
00:00 +30°C° 1.8 mm 3 mps 747 mmHg 87%
01:00 +30°C° 0.1 mm 2 mps 746 mmHg 87%
02:00 +30°C° 0.1 mm 2 mps 746 mmHg 88%
03:00 +30°C° 0.1 mm 1 mps 746 mmHg 88%
04:00 +30°C° 0 mm 1 mps 746 mmHg 87%
05:00 +30°C° 0 mm 1 mps 747 mmHg 87%
06:00 +29°C° 0 mm 1 mps 747 mmHg 87%
07:00 +31°C° 0 mm 2 mps 748 mmHg 81%
08:00 +33°C° 0 mm 3 mps 748 mmHg 76%
09:00 +34°C° 0 mm 4 mps 749 mmHg 71%
10:00 +34°C° 0.7 mm 6 mps 748 mmHg 70%
11:00 +34°C° 0.7 mm 7 mps 748 mmHg 70%
12:00 +34°C° 0.7 mm 8 mps 748 mmHg 70%
13:00 +34°C° 0.1 mm 8 mps 747 mmHg 72%
14:00 +33°C° 0.1 mm 8 mps 747 mmHg 74%
15:00 +33°C° 0.1 mm 8 mps 746 mmHg 76%
16:00 +32°C° 0.6 mm 7 mps 746 mmHg 78%
17:00 +32°C° 0.6 mm 6 mps 747 mmHg 81%
18:00 +30°C° 0.6 mm 5 mps 747 mmHg 83%
19:00 +30°C° 1.8 mm 6 mps 747 mmHg 84%
20:00 +30°C° 1.8 mm 6 mps 748 mmHg 86%
21:00 +29°C° 1.8 mm 6 mps 749 mmHg 87%
22:00 +29°C° 1.8 mm 6 mps 749 mmHg 88%
23:00 +29°C° 1.8 mm 5 mps 749 mmHg 89%

22 September, Tuesday

Time Temperature Precipitation Wind Pressure Humidity
00:00 +29°C° 1.8 mm 5 mps 749 mmHg 90%
01:00 +29°C° 2.3 mm 5 mps 748 mmHg 90%
02:00 +29°C° 2.3 mm 5 mps 748 mmHg 90%
03:00 +29°C° 2.3 mm 5 mps 748 mmHg 90%
04:00 +29°C° 0.3 mm 5 mps 749 mmHg 91%
05:00 +29°C° 0.3 mm 4 mps 749 mmHg 91%
06:00 +28°C° 0.3 mm 3 mps 749 mmHg 92%
07:00 +30°C° 0.3 mm 4 mps 750 mmHg 87%
08:00 +32°C° 0.3 mm 5 mps 750 mmHg 82%
09:00 +33°C° 0.3 mm 6 mps 751 mmHg 77%
10:00 +34°C° 0.8 mm 6 mps 750 mmHg 74%
11:00 +35°C° 0.8 mm 6 mps 750 mmHg 72%
12:00 +35°C° 0.8 mm 6 mps 750 mmHg 70%
13:00 +35°C° 2.4 mm 5 mps 749 mmHg 72%
14:00 +34°C° 2.4 mm 5 mps 748 mmHg 75%
15:00 +34°C° 2.4 mm 5 mps 748 mmHg 77%
16:00 +33°C° 1.1 mm 5 mps 748 mmHg 80%
17:00 +32°C° 1.1 mm 4 mps 748 mmHg 83%
18:00 +30°C° 1.1 mm 4 mps 748 mmHg 86%
19:00 +30°C° 0.3 mm 4 mps 749 mmHg 87%
20:00 +30°C° 0.3 mm 4 mps 750 mmHg 88%
21:00 +29°C° 0.3 mm 4 mps 750 mmHg 89%
22:00 +29°C° 0 mm 4 mps 750 mmHg 89%
23:00 +29°C° 0 mm 4 mps 750 mmHg 90%

23 September, Wednesday

Time Temperature Precipitation Wind Pressure Humidity
00:00 +29°C° 0 mm 4 mps 750 mmHg 90%
01:00 +29°C° 0.5 mm 4 mps 750 mmHg 90%
02:00 +29°C° 0.5 mm 4 mps 750 mmHg 90%
03:00 +29°C° 0.5 mm 4 mps 749 mmHg 90%
04:00 +29°C° 0.8 mm 3 mps 750 mmHg 91%
05:00 +29°C° 0.8 mm 3 mps 750 mmHg 91%
06:00 +28°C° 0.8 mm 3 mps 750 mmHg 92%
07:00 +29°C° 1.2 mm 3 mps 751 mmHg 88%
08:00 +30°C° 1.2 mm 4 mps 751 mmHg 84%
09:00 +32°C° 1.2 mm 4 mps 751 mmHg 81%
10:00 +33°C° 2.7 mm 4 mps 751 mmHg 79%
11:00 +33°C° 2.7 mm 4 mps 751 mmHg 77%
12:00 +34°C° 2.7 mm 3 mps 750 mmHg 75%
13:00 +34°C° 1.9 mm 4 mps 750 mmHg 75%
14:00 +34°C° 1.9 mm 4 mps 749 mmHg 75%
15:00 +34°C° 1.9 mm 4 mps 749 mmHg 75%
16:00 +33°C° 0.8 mm 4 mps 749 mmHg 78%
17:00 +32°C° 0.8 mm 4 mps 749 mmHg 82%
18:00 +30°C° 0.8 mm 3 mps 749 mmHg 86%
19:00 +30°C° 0.2 mm 3 mps 749 mmHg 87%
20:00 +30°C° 0.2 mm 3 mps 750 mmHg 89%
21:00 +29°C° 0.2 mm 3 mps 751 mmHg 91%
22:00 +29°C° 1.2 mm 4 mps 751 mmHg 90%
23:00 +29°C° 1.2 mm 4 mps 750 mmHg 90%
Show more